Liberal, KS

1:15 AM CST on February 07, 2016 (GMT -0600)
Liberal Municipal

Weather History for KLBL - April, 2012

Change the Weather History Date:

Monday, April 30, 2012

  Actual Average Record
Temperature  
Mean Temperature 66 °F -  
Max Temperature 78 °F 75 °F 94 °F (1981)
Min Temperature 53 °F 44 °F 28 °F (1950)
Growing Degree Days 16 (Base 50)    
Moisture  
Dew Point 55 °F    
Average Humidity 72    
Maximum Humidity 88    
Minimum Humidity 47    
Precipitation  
Precipitation 0.00 in - - ()
Sea Level Pressure  
Sea Level Pressure 29.92 in    
Wind  
Wind Speed 11 mph (SE)    
Max Wind Speed 23 mph    
Max Gust Speed 36 mph    
Visibility 10 miles    
Events Thunderstorm    
Averages and records for this station are not official NWS values.
T = Trace of Precipitation, MM = Missing Value Source: NWS Daily Summary

Daily Weather History Graph

Daily Weather History Graph

Search for Another Location

Airport or City:

Trip Planner

Search our weather history database for the weather conditions in past years. The results will help you decide how hot, cold, wet, or windy it might be!

Date:

Astronomy

Apr. 30, 2012 Rise Set
Actual Time 6:49 AM CDT 8:32 PM CDT
Civil Twilight 6:22 AM CDT 9:00 PM CDT
Nautical Twilight 5:48 AM CDT 9:34 PM CDT
Astronomical Twilight 5:12 AM CDT 10:10 PM CDT
Moon 2:39 PM CDT (4/30) 3:06 AM CDT (4/30)
Length of Visible Light 14h 38m
Length of Day
13h 42m
Waxing Gibbous, 64% of the Moon is Illuminated
Apr 30
Waxing Gibbous
May 5
Full
May 12
Last Quarter
May 20
New
May 28
First Quarter

Hourly Weather History & Observations

Time (CDT) Temp. Dew Point Humidity Pressure Visibility Wind Dir Wind Speed Gust Speed Precip Events Conditions
12:15 AM 55.4 °F 50.0 °F 82% 29.93 in 10.0 mi East 12.7 mph - N/A   Scattered Clouds
12:35 AM 55.4 °F 51.8 °F 88% 29.98 in 10.0 mi South 15.0 mph 23.0 mph N/A   Overcast
12:55 AM 55.4 °F 51.8 °F 88% 29.89 in 10.0 mi ESE 23.0 mph 35.7 mph N/A   Overcast
1:15 AM 57.2 °F 51.8 °F 82% 29.94 in 10.0 mi Calm Calm - N/A   Mostly Cloudy
1:35 AM 57.2 °F 51.8 °F 82% 29.93 in 10.0 mi SE 13.8 mph 17.3 mph N/A   Partly Cloudy
1:55 AM 57.2 °F 51.8 °F 82% 29.93 in 10.0 mi Calm Calm - N/A   Clear
2:15 AM 59.0 °F 51.8 °F 77% 29.91 in 10.0 mi ESE 3.5 mph - N/A   Partly Cloudy
2:35 AM 55.4 °F 50.0 °F 82% 29.92 in 10.0 mi Calm Calm - N/A   Scattered Clouds
2:55 AM 55.4 °F 50.0 °F 82% 29.94 in 10.0 mi North 3.5 mph - N/A   Partly Cloudy
3:15 AM 53.6 °F 48.2 °F 82% 29.95 in 10.0 mi NW 5.8 mph - N/A   Clear
3:35 AM 53.6 °F 48.2 °F 82% 29.97 in 10.0 mi North 10.4 mph - N/A   Clear
3:55 AM 55.4 °F 50.0 °F 82% 29.98 in 10.0 mi NE 6.9 mph - N/A   Scattered Clouds
4:15 AM 55.4 °F 50.0 °F 82% 29.97 in 10.0 mi ENE 9.2 mph - N/A   Mostly Cloudy
4:35 AM 55.4 °F 50.0 °F 82% 29.96 in 10.0 mi NE 11.5 mph - N/A   Mostly Cloudy
4:55 AM 55.4 °F 50.0 °F 82% 29.97 in 10.0 mi ENE 6.9 mph - N/A   Overcast
5:15 AM 55.4 °F 50.0 °F 82% 29.99 in 10.0 mi ENE 8.1 mph - N/A   Mostly Cloudy
5:35 AM 55.4 °F 50.0 °F 82% 30.00 in 10.0 mi NE 6.9 mph - N/A   Mostly Cloudy
5:55 AM 55.4 °F 50.0 °F 82% 30.00 in 10.0 mi NE 8.1 mph - N/A   Overcast
6:15 AM 55.4 °F 50.0 °F 82% 29.99 in 10.0 mi ENE 9.2 mph - N/A   Overcast
6:35 AM 55.4 °F 50.0 °F 82% 29.99 in 10.0 mi ENE 9.2 mph - N/A   Overcast
6:55 AM 55.4 °F 50.0 °F 82% 30.00 in 10.0 mi ENE 8.1 mph - N/A   Mostly Cloudy
7:15 AM 55.4 °F 51.8 °F 88% 30.02 in 10.0 mi East 4.6 mph - N/A   Mostly Cloudy
7:35 AM 55.4 °F 51.8 °F 88% 30.03 in 10.0 mi ESE 4.6 mph - N/A   Overcast
7:55 AM 55.4 °F 51.8 °F 88% 30.01 in 10.0 mi East 6.9 mph - N/A   Overcast
8:15 AM 55.4 °F 51.8 °F 88% 30.02 in 10.0 mi ESE 6.9 mph - N/A   Mostly Cloudy
8:35 AM 55.4 °F 51.8 °F 88% 30.02 in 10.0 mi East 3.5 mph - N/A   Mostly Cloudy
8:55 AM 57.2 °F 51.8 °F 82% 30.02 in 10.0 mi SSE 8.1 mph - N/A Thunderstorm Thunderstorm
9:15 AM 55.4 °F 51.8 °F 88% 30.02 in 8.0 mi ENE 8.1 mph - N/A Thunderstorm Overcast
9:35 AM 57.2 °F 53.6 °F 88% 30.02 in 10.0 mi SE 9.2 mph - N/A   Overcast
9:55 AM 57.2 °F 53.6 °F 88% 30.02 in 10.0 mi SE 10.4 mph - N/A   Overcast
10:15 AM 59.0 °F 53.6 °F 82% 30.02 in 10.0 mi SE 10.4 mph - N/A   Overcast
10:35 AM 60.8 °F 55.4 °F 82% 30.01 in 10.0 mi SE 12.7 mph - N/A   Mostly Cloudy
10:55 AM 62.6 °F 55.4 °F 77% 30.01 in 10.0 mi SSE 11.5 mph - N/A   Mostly Cloudy
11:15 AM 62.6 °F 55.4 °F 77% 30.01 in 10.0 mi South 13.8 mph - N/A   Overcast
11:35 AM 64.4 °F 55.4 °F 73% 30.01 in 10.0 mi South 12.7 mph - N/A   Overcast
11:55 AM 64.4 °F 55.4 °F 73% 30.01 in 10.0 mi South 13.8 mph - N/A   Overcast
12:15 PM 66.2 °F 57.2 °F 73% 30.01 in 10.0 mi SSW 13.8 mph - N/A   Overcast
12:35 PM 68.0 °F 57.2 °F 68% 30.00 in 10.0 mi South 12.7 mph 18.4 mph N/A   Mostly Cloudy
12:55 PM 69.8 °F 59.0 °F 68% 29.98 in 10.0 mi SSW 5.8 mph - N/A   Overcast
1:15 PM 71.6 °F 59.0 °F 64% 29.98 in 10.0 mi South 13.8 mph - N/A   Overcast
1:35 PM 73.4 °F 60.8 °F 65% 29.96 in 10.0 mi South 16.1 mph 27.6 mph N/A   Overcast
1:55 PM 75.2 °F 60.8 °F 61% 29.95 in 10.0 mi South 19.6 mph 26.5 mph N/A   Overcast
2:15 PM 75.2 °F 60.8 °F 61% 29.94 in 10.0 mi South 15.0 mph 26.5 mph N/A   Scattered Clouds
2:35 PM 75.2 °F 60.8 °F 61% 29.93 in 10.0 mi South 19.6 mph - N/A   Mostly Cloudy
2:55 PM 75.2 °F 60.8 °F 61% 29.93 in 10.0 mi South 17.3 mph 23.0 mph N/A   Overcast
3:15 PM 75.2 °F 59.0 °F 57% 29.92 in 10.0 mi South 21.9 mph 26.5 mph N/A   Overcast
3:35 PM 77.0 °F 59.0 °F 54% 29.91 in 10.0 mi South 17.3 mph 23.0 mph N/A   Overcast
3:55 PM 78.8 °F 59.0 °F 51% 29.90 in 10.0 mi South 20.7 mph 26.5 mph N/A   Mostly Cloudy
4:15 PM 77.0 °F 59.0 °F 54% 29.90 in 10.0 mi South 19.6 mph 26.5 mph N/A   Scattered Clouds
4:35 PM 78.8 °F 60.8 °F 54% 29.88 in 10.0 mi South 15.0 mph 23.0 mph N/A   Partly Cloudy
4:55 PM 78.8 °F 60.8 °F 54% 29.87 in 10.0 mi SSW 20.7 mph - N/A   Mostly Cloudy
5:15 PM 78.8 °F 60.8 °F 54% 29.87 in 10.0 mi SSW 16.1 mph - N/A   Mostly Cloudy
5:35 PM 78.8 °F 60.8 °F 54% 29.86 in 10.0 mi SSW 16.1 mph 23.0 mph N/A   Mostly Cloudy
5:55 PM 78.8 °F 59.0 °F 51% 29.85 in 10.0 mi SSW 17.3 mph - N/A   Partly Cloudy
6:15 PM 78.8 °F 57.2 °F 47% 29.84 in 10.0 mi SSW 19.6 mph 24.2 mph N/A   Clear
6:35 PM 78.8 °F 59.0 °F 51% 29.84 in 10.0 mi SSW 17.3 mph - N/A   Clear
6:55 PM 77.0 °F 57.2 °F 50% 29.83 in 10.0 mi SSW 17.3 mph 20.7 mph N/A   Clear
7:15 PM 75.2 °F 57.2 °F 53% 29.81 in 10.0 mi SSW 17.3 mph - N/A   Clear
7:35 PM 75.2 °F 57.2 °F 53% 29.80 in 10.0 mi SSW 10.4 mph - N/A   Clear
7:55 PM 73.4 °F 57.2 °F 57% 29.79 in 10.0 mi SSW 6.9 mph - N/A   Clear
8:15 PM 71.6 °F 57.2 °F 60% 29.77 in 10.0 mi SSW 6.9 mph - N/A   Clear
8:35 PM 69.8 °F 57.2 °F 64% 29.77 in 10.0 mi South 4.6 mph - N/A   Clear
8:55 PM 69.8 °F 57.2 °F 64% 29.77 in 10.0 mi SSE 4.6 mph - N/A   Clear
9:15 PM 66.2 °F 57.2 °F 73% 29.78 in 10.0 mi SE 8.1 mph - N/A   Clear
9:35 PM 68.0 °F 57.2 °F 68% 29.78 in 10.0 mi ESE 8.1 mph - N/A   Clear
9:55 PM 66.2 °F 57.2 °F 73% 29.78 in 10.0 mi ESE 8.1 mph - N/A   Clear
10:15 PM 66.2 °F 57.2 °F 73% 29.78 in 10.0 mi East 6.9 mph - N/A   Clear
10:35 PM 66.2 °F 57.2 °F 73% 29.79 in 10.0 mi East 5.8 mph - N/A   Clear
10:55 PM 66.2 °F 57.2 °F 73% 29.81 in 10.0 mi East 9.2 mph - N/A   Clear
11:15 PM 64.4 °F 57.2 °F 77% 29.82 in 10.0 mi East 11.5 mph - N/A   Clear
11:35 PM 62.6 °F 57.2 °F 82% 29.83 in 10.0 mi East 12.7 mph - N/A   Clear
11:55 PM 62.6 °F 57.2 °F 82% 29.83 in 10.0 mi ESE 13.8 mph - N/A   Clear